GW4332 Weather Reports


time (UTC)temp
C
wind
direction
speed
KPH
gust
KPH
rain 1hr
cm
rain 24hr
cm
rain mn
cm
humidity
%
barometer
mb
20260506222030 9 69 6.4 12.9 0.00 0.00 0.00 78 1013.1
20260506221030 9 65 6.4 14.5 0.00 0.00 0.00 77 1013.1
20260506220029 9 60 8.0 16.1 0.00 0.00 0.00 77 1013.0
20260506215030 9 54 9.7 20.9 0.00 0.00 0.00 77 1012.9
20260506214029 10 57 11.3 19.3 0.00 0.00 0.00 76 1012.9
20260506213030 10 44 11.3 17.7 0.00 0.00 0.00 75 1012.9
20260506212030 10 50 12.9 22.5 0.00 0.00 0.00 74 1012.8
20260506211029 10 41 12.9 20.9 0.00 0.00 0.00 73 1012.7
20260506210029 10 45 12.9 22.5 0.00 0.00 0.00 72 1012.6
20260506205030 10 44 12.9 20.9 0.00 0.00 0.00 70 1012.5
20260506204029 11 41 14.5 25.7 0.00 0.00 0.00 69 1012.5
20260506203029 11 47 12.9 20.9 0.00 0.00 0.00 69 1012.4
20260506202030 11 42 14.5 22.5 0.00 0.00 0.00 68 1012.3
20260506201030 11 51 14.5 22.5 0.00 0.00 0.00 68 1012.3
20260506200030 11 39 12.9 22.5 0.00 0.00 0.00 67 1012.2
20260506195030 11 46 11.3 20.9 0.00 0.00 0.00 66 1012.0
20260506194030 11 50 12.9 20.9 0.00 0.00 0.00 65 1012.0
20260506193029 11 48 14.5 24.1 0.00 0.00 0.00 65 1011.8
20260506192029 11 35 14.5 24.1 0.00 0.00 0.00 64 1011.6
20260506191030 12 35 14.5 30.6 0.00 0.00 0.00 64 1011.4
20260506190029 12 40 17.7 29.0 0.00 0.00 0.00 64 1011.3
20260506185030 12 38 16.1 30.6 0.00 0.00 0.00 64 1011.2
20260506184030 12 43 14.5 25.7 0.00 0.00 0.00 64 1011.1
20260506183030 12 42 17.7 32.2 0.00 0.00 0.00 65 1011.0
20260506182029 12 37 16.1 27.4 0.00 0.00 0.00 65 1010.9
20260506181030 12 50 14.5 24.1 0.00 0.00 0.00 66 1010.8
20260506180030 12 36 12.9 24.1 0.00 0.00 0.00 67 1010.7
20260506175029 12 20 17.7 30.6 0.00 0.00 0.00 67 1010.5
20260506174030 13 23 14.5 29.0 0.00 0.00 0.00 65 1010.4
20260506173030 13 36 9.7 22.5 0.00 0.00 0.00 65 1010.3
20260506172030 13 40 4.8 12.9 0.00 0.00 0.00 59 1010.3
20260506171030 12 74 9.7 19.3 0.00 0.00 0.00 58 1010.2
20260506170030 12 78 11.3 20.9 0.00 0.00 0.00 57 1010.2
20260506165029 13 80 12.9 22.5 0.00 0.00 0.00 56 1010.2
20260506164030 13 82 8.0 20.9 0.00 0.00 0.00 55 1010.1
20260506163030 12 87 8.0 22.5 0.00 0.00 0.00 55 1010.1
20260506162030 12 74 11.3 27.4 0.00 0.00 0.00 55 1009.9
20260506161030 12 75 14.5 30.6 0.00 0.00 0.00 56 1010.0
20260506160029 12 58 16.1 30.6 0.00 0.00 0.00 56 1010.0
20260506155029 13 77 14.5 24.1 0.00 0.00 0.00 55 1010.0
20260506154029 13 79 17.7 33.8 0.00 0.00 0.00 54 1010.0
20260506153029 13 82 14.5 29.0 0.00 0.00 0.00 54 1010.0
20260506152030 13 69 14.5 25.7 0.00 0.00 0.00 53 1010.0
20260506151030 13 45 16.1 24.1 0.00 0.00 0.00 53 1010.0
20260506150030 13 30 14.5 29.0 0.00 0.00 0.00 52 1009.9
20260506145029 13 45 14.5 25.7 0.00 0.00 0.00 51 1009.9
20260506144029 13 54 12.9 24.1 0.00 0.00 0.00 50 1009.9
20260506143029 13 53 16.1 27.4 0.00 0.00 0.00 48 1009.9
20260506142029 13 71 16.1 29.0 0.00 0.00 0.00 46 1009.8
20260506141030 13 73 12.9 27.4 0.00 0.00 0.00 49 1009.8
20260506140030 13 75 12.9 25.7 0.00 0.00 0.00 48 1009.8
20260506135030 13 67 16.1 30.6 0.00 0.00 0.00 49 1009.7
20260506134030 13 88 16.1 32.2 0.00 0.00 0.00 46 1009.6
20260506133029 13 87 16.1 33.8 0.00 0.00 0.00 47 1009.7
20260506132029 13 92 14.5 37.0 0.00 0.00 0.00 44 1009.7
20260506131029 13 77 20.9 37.0 0.00 0.00 0.00 44 1009.6
20260506130030 13 77 19.3 43.5 0.00 0.00 0.00 45 1009.6
20260506125029 13 70 17.7 38.6 0.00 0.00 0.00 46 1009.5
20260506124029 13 81 19.3 38.6 0.00 0.00 0.00 44 1009.5
20260506123030 13 71 19.3 33.8 0.00 0.00 0.00 45 1009.5
20260506122030 13 72 19.3 33.8 0.00 0.00 0.00 47 1009.4
20260506121030 13 66 16.1 30.6 0.00 0.00 0.00 46 1009.4
20260506120030 13 80 8.0 29.0 0.00 0.00 0.00 47 1009.5
20260506115030 14 77 16.1 38.6 0.00 0.00 0.00 45 1009.4
20260506114030 14 96 11.3 40.2 0.00 0.00 0.00 49 1009.4
20260506113030 13 72 14.5 37.0 0.00 0.00 0.00 51 1009.3
20260506112030 13 98 8.0 30.6 0.00 0.00 0.00 50 1009.4
20260506111029 13 77 14.5 30.6 0.00 0.00 0.00 49 1009.3
20260506110030 13 73 14.5 32.2 0.00 0.00 0.00 49 1009.2
20260506105030 13 77 17.7 37.0 0.00 0.00 0.00 47 1009.2
20260506104030 13 82 12.9 35.4 0.00 0.00 0.00 51 1009.3
20260506103030 13 65 12.9 27.4 0.00 0.00 0.00 56 1009.3
20260506102030 13 67 12.9 30.6 0.00 0.00 0.00 56 1009.3
20260506101029 13 55 14.5 24.1 0.00 0.00 0.00 56 1009.2
20260506100029 12 67 14.5 30.6 0.00 0.00 0.00 57 1009.2
20260506095029 12 51 17.7 33.8 0.00 0.00 0.00 58 1009.1
20260506094030 12 66 16.1 33.8 0.00 0.00 0.00 61 1009.1
20260506093030 12 59 17.7 33.8 0.00 0.00 0.00 61 1009.1
20260506092029 12 40 14.5 27.4 0.00 0.00 0.00 71 1009.0
20260506091030 12 33 14.5 24.1 0.00 0.00 0.00 73 1009.0
20260506090029 12 33 14.5 24.1 0.00 0.00 0.00 73 1009.0
20260506085030 12 19 14.5 27.4 0.00 0.00 0.00 75 1008.9
20260506084030 12 47 12.9 24.1 0.00 0.00 0.00 76 1008.9
20260506083030 11 60 12.9 27.4 0.00 0.00 0.00 76 1008.9
20260506082030 11 47 11.3 22.5 0.00 0.00 0.00 77 1008.9
20260506081029 11 38 14.5 22.5 0.00 0.00 0.00 77 1008.9
20260506073029 11 61 17.7 30.6 0.00 0.00 0.00 75 1008.8
20260506072029 11 52 17.7 27.4 0.00 0.00 0.00 74 1008.8
20260506071030 11 62 17.7 27.4 0.00 0.00 0.00 74 1008.6
20260506062029 10 67 9.7 20.9 0.00 0.00 0.00 80 1008.3
20260506061029 10 60 12.9 25.7 0.00 0.00 0.00 82 1008.2
20260506051030 10 37 14.5 22.5 0.00 0.00 0.00 83 1008.3
20260506045029 10 31 14.5 22.5 0.00 0.00 0.00 83 1008.2
20260506044029 10 40 14.5 20.9 0.00 0.00 0.00 83 1008.3
20260506043030 10 37 16.1 24.1 0.00 0.00 0.00 83 1008.3
20260506042030 10 36 12.9 20.9 0.00 0.00 0.00 83 1008.3
20260506041030 10 32 16.1 24.1 0.00 0.00 0.00 83 1008.2
20260506040029 10 35 16.1 25.7 0.00 0.00 0.00 83 1008.2
20260506035029 10 32 14.5 22.5 0.00 0.00 0.00 83 1008.3
20260506034030 10 45 14.5 20.9 0.00 0.00 0.00 83 1008.3
20260506033030 10 38 14.5 24.1 0.00 0.00 0.00 83 1008.5
20260506032030 10 40 17.7 29.0 0.00 0.00 0.00 83 1008.5
20260506031030 10 38 17.7 29.0 0.00 0.00 0.00 83 1008.6
20260506030030 10 39 17.7 30.6 0.00 0.00 0.00 83 1008.7
20260506025029 10 36 16.1 25.7 0.00 0.00 0.00 83 1008.9
20260506024030 10 36 16.1 27.4 0.00 0.00 0.00 82 1008.9
20260506023030 10 43 16.1 25.7 0.00 0.00 0.00 82 1008.9
20260506022030 10 46 14.5 24.1 0.00 0.00 0.00 81 1009.0
20260506021029 10 37 14.5 22.5 0.00 0.00 0.00 80 1008.9
20260506020029 10 39 12.9 22.5 0.00 0.00 0.00 80 1008.9
20260506015030 10 43 14.5 22.5 0.00 0.00 0.00 79 1008.9
20260506014030 10 44 12.9 22.5 0.00 0.00 0.00 79 1009.0
20260506013030 10 46 17.7 27.4 0.00 0.00 0.00 79 1009.1
20260506012029 10 47 14.5 25.7 0.00 0.00 0.00 79 1009.1
20260506011029 10 41 16.1 30.6 0.00 0.00 0.00 79 1009.1
20260506010030 10 45 17.7 27.4 0.00 0.00 0.00 79 1009.3
20260506005030 10 50 14.5 22.5 0.00 0.00 0.00 78 1009.4
20260506004030 10 41 19.3 30.6 0.00 0.00 0.00 78 1009.5
20260506003030 10 41 17.7 30.6 0.00 0.00 0.00 78 1009.5
20260506002029 10 39 16.1 29.0 0.00 0.00 0.00 78 1009.6
20260506001030 10 49 17.7 33.8 0.00 0.00 0.00 78 1009.7
20260506000030 10 45 16.1 30.6 0.00 0.00 0.00 78 1009.7
20260505235030 10 35 16.1 27.4 0.00 0.00 0.00 79 1009.9
20260505234029 10 36 14.5 27.4 0.00 0.00 0.00 79 1010.0
20260505233029 10 36 16.1 24.1 0.00 0.00 0.00 79 1010.0
20260505232030 10 33 16.1 29.0 0.00 0.00 0.00 79 1010.1
20260505231030 10 37 14.5 22.5 0.00 0.00 0.00 80 1010.1
20260505230030 10 43 16.1 25.7 0.00 0.00 0.00 80 1010.1
20260505225030 10 43 16.1 27.4 0.00 0.00 0.00 80 1010.2
20260505224030 10 49 17.7 27.4 0.00 0.00 0.00 80 1010.2
20260505223029 10 45 16.1 25.7 0.00 0.00 0.00 80 1010.6